Simultaneous Nadir Overpasses (SNOs) Predictions

Prediction of SNOs between TERRA and METOP-C Satellite Orbit:

Table of predicted SNOs for the next 14.0 days since TLE Epoch: 11/20/2021
Index Date (TERRA) Time (TERRA) Lat,Lon (TERRA) SZA (TERRA ) Date (METOP-C) Time (METOP-C) Lat,Lon (METOP-C) SZA (METOP-C ) Distance(km) Time Diff (sec)
1 11/22/2021 09:53:11 -81.21,-104.85 75.95 11/22/2021 09:52:00 -81.21,-104.72 75.96 2.33 71
2 11/22/2021 10:42:37 81.21, 62.88 104.08 11/22/2021 10:42:40 81.22, 62.82 104.08 1.12 3
3 11/25/2021 05:27:22 -81.22, -38.25 75.38 11/25/2021 05:26:23 -81.21, -38.29 75.41 0.89 59
4 11/25/2021 06:16:48 81.22, 129.46 104.64 11/25/2021 06:17:03 81.22, 129.29 104.63 2.92 15
5 11/28/2021 01:01:33 -81.20, 27.94 74.92 11/28/2021 01:00:45 -81.21, 28.11 74.92 3.18 48
6 11/28/2021 01:50:58 81.23,-164.00 105.15 11/28/2021 01:51:24 81.23,-163.88 105.18 2.12 26
7 11/30/2021 20:35:44 -81.20, 94.45 74.48 11/30/2021 20:35:08 -81.21, 94.49 74.48 0.99 36
8 11/30/2021 21:25:09 81.23, -97.52 105.59 11/30/2021 21:25:47 81.23, -97.46 105.61 0.97 38
9 12/03/2021 16:09:55 -81.21, 160.90 74.10 12/03/2021 16:09:31 -81.21, 160.84 74.11 1.09 24



Historial Predications of SNOs between TERRA and METOP-C
